Wind_Speed
33 34 34 34 34 35 35 36 37 37 38 39 39 40 40 40 40 40 41 42 42 41 41 43 43 43 42 43 43 44 43 43 41 39 37 36 34 31
35 35 36 36 37 37 37 37 37 38 38 40 41 41 41 42 41 40 40 42 43 43 42 42 43 44 43 43 43 44 44 44 43 42 40 38 35 33
37 37 37 38 38 38 39 39 39 39 39 39 41 42 42 42 42 42 42 42 43 43 43 43 44 45 44 43 43 44 44 44 43 42 41 39 36 34
37 37 37 38 38 39 39 39 39 40 40 40 41 42 42 42 42 42 43 43 43 44 44 44 44 45 45 45 43 44 44 44 44 43 42 40 38 36
37 37 37 38 38 38 39 39 39 40 40 40 40 41 42 42 42 42 42 43 44 44 44 45 45 45 45 46 45 44 44 44 45 45 44 42 39 36
37 37 37 37 37 37 38 39 39 40 40 40 39 40 41 42 42 43 43 43 43 44 44 45 45 45 46 46 45 45 45 44 44 44 43 42 40 37
36 36 36 36 36 36 37 38 39 39 39 40 39 39 40 42 42 43 43 43 43 43 44 44 45 45 46 46 46 45 45 44 44 43 42 41 40 38
36 35 35 35 35 35 36 36 37 38 38 39 39 39 40 41 43 43 43 43 43 44 44 44 45 46 47 46 46 45 45 45 45 44 43 42 41 39
36 35 34 34 34 34 34 35 35 36 37 38 38 39 40 41 42 43 43 43 43 43 44 43 44 45 47 46 46 46 45 45 45 45 44 43 41 40
35 34 33 33 33 33 33 33 33 34 35 36 36 37 39 40 42 42 43 43 43 44 44 43 43 44 45 46 46 46 46 45 45 46 45 44 42 41
35 34 33 33 32 32 32 32 32 33 34 35 35 36 38 39 41 42 43 43 43 44 44 43 43 43 44 45 46 46 46 47 46 45 46 45 43 42
35 34 33 33 32 32 32 32 32 33 34 35 35 36 38 39 40 42 43 44 43 44 45 44 44 45 44 44 45 46 47 47 47 46 46 46 45 44
34 33 32 32 31 31 31 31 31 32 33 35 36 37 38 39 40 41 43 44 44 44 45 46 45 46 45 44 44 46 47 48 48 48 48 47 46 45
33 32 31 31 30 30 30 30 30 31 32 33 35 36 37 38 39 41 42 43 45 45 45 46 46 45 45 45 44 44 45 47 49 48 49 47 47 46
32 31 31 30 29 29 29 29 29 28 29 30 32 33 34 36 38 40 41 42 44 45 46 46 46 47 46 45 44 45 46 47 48 48 49 49 49 48
32 31 30 29 28 27 27 26 26 27 26 26 27 29 31 33 35 38 40 42 43 44 45 46 46 46 46 45 45 45 46 46 47 49 50 50 50 50
31 30 28 27 27 26 25 25 24 24 24 24 25 27 28 31 33 36 38 41 42 43 44 46 46 46 46 46 45 45 44 45 45 47 50 50 50 50
30 29 28 27 26 26 25 24 23 23 23 23 23 24 26 29 31 33 36 39 41 42 44 45 46 47 47 45 43 43 44 44 44 46 49 50 51 50
29 28 27 26 25 25 24 24 23 22 21 21 21 22 24 26 29 31 34 37 40 42 44 45 46 47 46 45 43 44 42 42 43 45 47 49 51 51
28 27 26 25 25 25 24 23 22 22 21 21 21 21 23 24 26 29 32 35 37 40 43 44 45 46 46 46 44 43 43 42 42 44 45 48 51 52
27 26 25 25 24 24 23 22 22 22 22 21 21 20 21 22 24 27 30 33 35 38 40 42 43 45 45 45 45 45 45 43 42 43 45 47 48 50
27 26 26 25 24 24 23 22 21 21 21 20 18 18 19 21 22 25 28 31 33 35 38 41 43 44 45 44 45 46 45 44 43 44 45 47 47 47
27 26 25 25 24 23 22 22 21 20 19 18 17 16 18 20 21 23 26 30 32 34 37 40 42 43 43 44 45 45 45 44 44 45 45 46 47 47
Wind_Direction
293 290 287 284 282 278 275 272 269 266 264 262 259 257 255 253 250 248 245 243 242 240 239 237 234 233 233 232 231 232 232 231 231 232 233 234 235 236
294 290 287 284 281 278 275 273 270 267 264 262 259 257 256 253 251 249 246 244 243 241 240 238 235 233 233 233 233 232 232 231 231 232 233 233 234 235
294 291 287 283 281 278 275 272 269 267 264 261 259 257 256 254 252 249 246 245 242 240 239 238 236 233 232 233 232 231 231 230 231 231 231 231 233 234
296 292 288 285 282 279 275 272 269 266 264 261 258 256 255 253 251 249 246 245 242 240 238 236 236 235 232 232 231 230 230 230 230 229 229 229 232 233
297 293 290 286 283 279 276 272 269 266 264 260 257 255 253 251 250 248 246 245 242 240 237 236 235 234 232 231 231 231 230 230 229 228 229 229 230 231
299 295 291 288 284 280 276 273 270 267 264 260 257 254 252 250 248 246 244 243 241 240 238 236 235 234 232 231 230 230 229 228 228 227 227 226 228 229
301 297 293 289 286 282 278 274 271 267 264 260 257 254 251 249 247 244 243 241 239 239 238 236 235 234 233 230 228 228 228 227 225 224 224 224 226 226
303 299 296 292 288 283 279 275 271 267 263 260 257 254 251 248 246 244 242 240 239 238 237 235 234 233 232 230 227 226 226 226 225 225 224 223 224 224
305 301 297 292 288 285 281 276 272 268 263 260 257 254 251 248 245 243 241 239 237 236 236 235 234 232 230 229 227 225 225 225 224 224 221 221 222 223
306 302 298 295 291 287 283 278 273 269 264 260 256 254 251 248 245 242 240 239 237 235 234 234 232 231 231 228 225 224 223 223 222 222 221 221 221 220
307 302 299 296 293 289 285 280 275 270 266 261 257 254 251 248 245 242 239 238 237 235 234 232 230 229 229 228 226 223 221 220 220 221 220 219 220 219
308 304 300 297 293 290 287 282 277 272 267 263 260 257 253 249 246 242 239 236 235 233 232 231 229 228 228 227 225 222 220 218 219 220 220 218 219 219
309 306 303 300 296 292 288 284 278 273 269 265 261 257 253 249 246 241 238 235 233 231 230 230 228 227 225 224 222 221 219 219 218 220 219 218 217 217
310 307 306 302 299 295 290 286 281 276 272 267 262 258 253 249 244 241 237 234 231 230 230 228 227 226 224 222 221 220 220 220 219 219 218 217 216 215
311 309 307 305 301 298 293 289 284 280 275 269 262 257 252 247 243 239 235 232 230 229 228 227 226 225 224 223 222 221 220 218 218 218 217 216 216 216
312 310 309 307 304 301 296 292 288 283 278 271 264 257 251 246 241 238 235 232 229 228 226 225 225 223 222 223 223 221 219 217 217 218 218 216 215 215
312 311 309 308 306 304 299 295 291 286 280 274 266 258 251 245 240 237 233 230 228 226 224 223 223 221 220 220 222 220 218 216 215 217 217 216 215 213
312 311 310 308 306 305 301 297 294 289 282 277 269 260 252 245 240 236 232 229 226 224 223 221 221 220 219 218 218 219 219 217 216 215 215 214 214 213
311 311 310 309 307 305 302 298 294 291 286 279 272 263 255 247 241 237 232 228 225 223 222 221 220 219 218 217 218 218 218 218 216 215 215 214 213 212
310 309 309 308 307 306 303 300 296 291 287 283 276 266 256 247 241 236 231 226 223 221 220 220 219 219 218 217 217 215 216 218 217 216 214 213 212 210
309 308 307 307 306 305 303 300 297 293 288 284 277 266 256 248 241 235 229 223 221 219 219 218 218 218 217 217 216 215 215 217 217 216 214 212 212 211
308 307 306 305 304 303 301 299 298 294 290 285 277 264 254 246 240 233 227 221 218 218 217 216 216 216 217 216 215 215 215 216 218 216 213 212 211 210
307 307 306 303 302 301 299 297 296 293 288 285 277 265 253 245 239 232 224 220 217 216 215 214 215 215 216 215 214 214 214 215 215 213 212 211 210 209
Height
5777 5775 5773 5772 5771 5770 5770 5770 5771 5771 5772 5773 5775 5778 5780 5784 5788 5791 5795 5799 5803 5808 5812 5817 5822 5827 5832 5838 5843 5849 5854 5859 5865 5870 5874 5879 5883 5886
5768 5766 5763 5762 5760 5759 5759 5758 5759 5760 5761 5762 5764 5766 5769 5773 5776 5780 5784 5788 5792 5797 5802 5807 5812 5817 5823 5829 5834 5839 5845 5851 5856 5861 5867 5871 5876 5880
5757 5755 5752 5750 5749 5748 5747 5747 5747 5748 5749 5751 5752 5754 5757 5761 5765 5769 5773 5777 5782 5786 5792 5797 5802 5807 5813 5819 5824 5830 5836 5842 5847 5853 5858 5864 5868 5873
5746 5743 5741 5739 5737 5735 5735 5734 5735 5735 5737 5739 5740 5742 5745 5749 5753 5757 5761 5766 5771 5776 5781 5786 5791 5797 5803 5809 5815 5821 5827 5832 5838 5844 5850 5856 5861 5866
5735 5732 5729 5727 5725 5723 5722 5722 5722 5723 5724 5726 5728 5730 5733 5737 5741 5745 5749 5754 5759 5765 5770 5775 5781 5786 5792 5799 5805 5811 5817 5823 5829 5835 5841 5847 5853 5858
5724 5720 5717 5715 5713 5711 5710 5709 5709 5710 5711 5713 5716 5719 5722 5725 5729 5733 5738 5743 5748 5753 5759 5764 5770 5775 5782 5788 5795 5801 5807 5813 5820 5826 5833 5839 5845 5850
5713 5709 5706 5704 5701 5699 5698 5697 5697 5697 5699 5700 5703 5706 5709 5712 5717 5721 5726 5731 5737 5742 5748 5754 5759 5765 5771 5777 5784 5791 5797 5804 5810 5817 5824 5830 5836 5842
5703 5699 5695 5693 5690 5688 5686 5685 5685 5685 5686 5688 5691 5694 5697 5700 5704 5709 5714 5720 5726 5732 5737 5742 5748 5754 5761 5767 5774 5781 5787 5794 5801 5808 5815 5821 5828 5834
5692 5688 5685 5682 5679 5677 5675 5673 5673 5673 5674 5676 5679 5682 5684 5688 5692 5697 5702 5707 5714 5719 5725 5732 5737 5743 5750 5757 5763 5770 5777 5784 5792 5799 5805 5812 5819 5825
5682 5678 5675 5671 5668 5666 5664 5663 5662 5662 5662 5664 5667 5669 5672 5675 5679 5685 5689 5696 5702 5708 5714 5720 5726 5733 5739 5746 5753 5759 5767 5774 5782 5789 5796 5803 5810 5817
5673 5668 5665 5661 5658 5655 5654 5652 5651 5651 5651 5652 5655 5657 5660 5663 5667 5672 5678 5684 5691 5697 5703 5709 5715 5722 5728 5735 5742 5749 5756 5764 5772 5779 5787 5794 5801 5808
5664 5659 5655 5651 5648 5645 5643 5642 5641 5640 5640 5641 5642 5645 5647 5651 5655 5660 5666 5672 5678 5685 5691 5698 5704 5711 5718 5725 5732 5739 5746 5754 5762 5770 5777 5785 5792 5799
5655 5650 5646 5642 5638 5635 5633 5631 5629 5629 5629 5629 5630 5632 5635 5638 5642 5647 5653 5659 5666 5673 5679 5686 5693 5700 5707 5715 5721 5729 5736 5744 5752 5760 5768 5775 5783 5791
5646 5641 5637 5633 5629 5626 5623 5621 5619 5618 5617 5617 5618 5620 5622 5626 5630 5634 5640 5647 5654 5661 5667 5674 5682 5689 5697 5704 5712 5719 5726 5734 5742 5750 5758 5766 5774 5782
5637 5632 5628 5624 5620 5617 5613 5611 5609 5607 5606 5606 5606 5608 5610 5613 5617 5622 5628 5634 5641 5648 5656 5663 5671 5678 5686 5694 5702 5709 5717 5724 5732 5740 5749 5757 5765 5773
5629 5625 5620 5615 5612 5608 5605 5602 5599 5598 5596 5596 5596 5597 5599 5602 5606 5611 5616 5622 5629 5637 5644 5652 5660 5668 5676 5684 5692 5699 5707 5715 5723 5731 5739 5747 5755 5764
5621 5617 5612 5608 5604 5600 5597 5594 5592 5589 5588 5587 5587 5587 5589 5592 5596 5600 5605 5611 5618 5626 5633 5641 5649 5657 5666 5674 5682 5690 5698 5706 5713 5721 5730 5738 5746 5755
5613 5609 5605 5601 5597 5593 5590 5587 5584 5582 5580 5579 5579 5579 5580 5583 5586 5590 5595 5601 5608 5615 5623 5631 5639 5647 5656 5665 5673 5680 5688 5697 5704 5712 5720 5728 5737 5746
5606 5602 5598 5594 5590 5586 5583 5580 5578 5575 5574 5572 5572 5572 5573 5574 5577 5581 5585 5591 5598 5606 5613 5621 5629 5638 5646 5656 5664 5672 5680 5688 5695 5703 5711 5720 5729 5737
5599 5595 5591 5587 5583 5580 5577 5574 5571 5569 5567 5566 5565 5564 5565 5567 5569 5573 5577 5583 5589 5596 5603 5611 5620 5629 5638 5647 5655 5663 5671 5679 5687 5694 5702 5710 5719 5728
5592 5588 5584 5581 5577 5574 5570 5568 5565 5563 5561 5559 5558 5557 5558 5559 5562 5565 5569 5574 5581 5587 5595 5603 5612 5620 5627 5636 5645 5654 5662 5670 5678 5686 5694 5702 5710 5719
5585 5581 5578 5574 5570 5567 5564 5562 5559 5557 5554 5553 5551 5551 5551 5553 5555 5558 5562 5567 5574 5580 5587 5595 5603 5611 5619 5628 5637 5645 5653 5662 5669 5677 5685 5695 5703 5713
5578 5574 5570 5567 5564 5561 5558 5556 5553 5551 5549 5547 5546 5546 5546 5547 5549 5552 5556 5561 5567 5573 5580 5587 5595 5603 5611 5619 5628 5636 5645 5653 5661 5669 5678 5686 5695 5703